User: anonymous   Login
Location: Nairn
(57.5833°N, 3.8667°W)
Time: 16:22:12
(UTC+00:00)
Language:

Cosmos 1271 Rocket - Orbit

View from above orbital plane
View from above orbital plane
View from above satellite
View from above satellite

Ground track
Ground track

The orbit data is extracted from the following two-line orbital elements,

1 12465U 81046B   20292.87130199 +.00000111 +00000-0 +45145-5 0  9997
2 12465 081.2428 062.3209 0033645 201.3525 158.6302 15.14704467138967
Epoch (UTC): 18 October 2020 20:54:40
Eccentricity: 0.0033645
inclination: 81.2428°
perigee height: 498 km
apogee height: 545 km
right ascension of ascending node: 62.3209°
argument of perigee: 201.3525°
revolutions per day: 15.14704467
mean anomaly at epoch: 158.6302°
orbit number at epoch: 13896

The dashed part of the orbit path shows where the satellite is in the earth's shadow,  

DLR